Location: Ceske Budejovice
(48.9833°N, 14.4667°E)
Time: 01:53:23
(UTC+01:00)

ISS - Visible Passes

Search period start: 21 November 2017 00:00
Search period end: 01 December 2017 00:00
Orbit: 402 x 407 km, 51.6° (Epoch: 21 November)

Date Brightness Start Highest point End Pass type
(mag) Time Alt. Az. Time Alt. Az. Time Alt. Az.
28 Nov -2.0 18:16:02 10° SSW 18:17:53 22° S 18:17:53 22° S visible
29 Nov -1.8 17:24:30 10° S 17:26:41 17° SE 17:27:47 14° ESE visible
29 Nov -1.1 18:59:28 10° WSW 19:00:27 18° WSW 19:00:27 18° WSW visible
30 Nov -3.4 18:07:13 10° SW 18:10:17 49° SSE 18:10:17 49° SSE visible
